Wendover, UT

11:33 AM MST on January 17, 2017 (GMT -0700)
Wendover

Weather History for KENV - June, 2013

Change the Weather History Date:

Monday, June 10, 2013

  Actual Average Record
Temperature  
Mean Temperature 82 °F -  
Max Temperature 96 °F 78 °F 96 °F (2013)
Min Temperature 69 °F 56 °F 39 °F (2012)
Cooling Degree Days 18    
Growing Degree Days 32 (Base 50)    
Moisture  
Dew Point 33 °F    
Average Humidity 18    
Maximum Humidity 35    
Minimum Humidity 10    
Precipitation  
Precipitation 0.00 in - - ()
Sea Level Pressure  
Sea Level Pressure 29.79 in    
Wind  
Wind Speed 10 mph (SSW)    
Max Wind Speed 29 mph    
Max Gust Speed 32 mph    
Visibility 10 miles    
Events      
Averages and records for this station are not official NWS values.
T = Trace of Precipitation, MM = Missing Value Source: NWS Daily Summary

Daily Weather History Graph

Daily Weather History Graph

Search for Another Location

Airport or City:

Trip Planner

Search our weather history database for the weather conditions in past years. The results will help you decide how hot, cold, wet, or windy it might be!

Date:

Astronomy

Jun. 10, 2013 Rise Set
Actual Time 6:04 AM MDT 9:06 PM MDT
Civil Twilight 5:31 AM MDT 9:40 PM MDT
Nautical Twilight 4:49 AM MDT 10:22 PM MDT
Astronomical Twilight 3:59 AM MDT 11:12 PM MDT
Moon 7:57 AM MDT (6/10) 10:35 PM MDT (6/10)
Length of Visible Light 16h 08m
Length of Day
15h 02m
Waxing Crescent, 4% of the Moon is Illuminated
Jun 10
Waxing Crescent
Jun 16
First Quarter
Jun 23
Full
Jun 29
Last Quarter
Jul 8
New

Hourly Weather History & Observations

Time (MDT) Temp. Dew Point Humidity Pressure Visibility Wind Dir Wind Speed Gust Speed Precip Events Conditions
12:15 AM 78.8 °F 37.4 °F 23% 29.86 in 10.0 mi West 4.6 mph - N/A   Clear
12:35 AM 78.8 °F 39.2 °F 24% 29.85 in 10.0 mi WNW 5.8 mph - N/A   Clear
12:55 AM 75.2 °F 39.2 °F 27% 29.85 in 10.0 mi West 8.1 mph - N/A   Clear
1:15 AM 73.4 °F 39.2 °F 29% 29.85 in 10.0 mi West 6.9 mph - N/A   Partly Cloudy
1:35 AM 75.2 °F 39.2 °F 27% 29.86 in 10.0 mi West 5.8 mph - N/A   Clear
1:55 AM 75.2 °F 39.2 °F 27% 29.85 in 10.0 mi WSW 5.8 mph - N/A   Clear
2:15 AM 75.2 °F 37.4 °F 25% 29.86 in 10.0 mi WNW 6.9 mph - N/A   Clear
2:35 AM 75.2 °F 37.4 °F 25% 29.85 in 10.0 mi West 6.9 mph - N/A   Clear
2:55 AM 75.2 °F 35.6 °F 24% 29.85 in 10.0 mi WNW 9.2 mph - N/A   Clear
3:15 AM 75.2 °F 37.4 °F 25% 29.85 in 10.0 mi West 5.8 mph - N/A   Clear
3:35 AM 75.2 °F 37.4 °F 25% 29.84 in 10.0 mi WSW 5.8 mph - N/A   Clear
3:55 AM 71.6 °F 37.4 °F 29% 29.84 in 10.0 mi WNW 5.8 mph - N/A   Clear
4:15 AM 71.6 °F 41.0 °F 33% 29.84 in 10.0 mi Calm Calm - N/A   Clear
4:35 AM 71.6 °F 37.4 °F 29% 29.84 in 10.0 mi SE 9.2 mph - N/A   Clear
4:55 AM 73.4 °F 37.4 °F 27% 29.84 in 10.0 mi SSE 6.9 mph - N/A   Clear
5:35 AM 73.4 °F 37.4 °F 27% 29.84 in 10.0 mi Calm Calm - N/A   Clear
5:55 AM 71.6 °F 37.4 °F 29% 29.85 in 10.0 mi ESE 5.8 mph - N/A   Clear
6:15 AM 71.6 °F 39.2 °F 31% 29.84 in 10.0 mi SE 5.8 mph - N/A   Clear
6:35 AM 71.6 °F 37.4 °F 29% 29.85 in 10.0 mi Calm Calm - N/A   Clear
6:55 AM 69.8 °F 39.2 °F 33% 29.84 in 10.0 mi WNW 4.6 mph - N/A   Clear
7:15 AM 71.6 °F 42.8 °F 35% 29.84 in 10.0 mi NW 3.5 mph - N/A   Clear
7:35 AM 73.4 °F 42.8 °F 33% 29.84 in 10.0 mi ESE 8.1 mph - N/A   Clear
7:55 AM 75.2 °F 39.2 °F 27% 29.84 in 10.0 mi ENE 5.8 mph - N/A   Clear
8:15 AM 73.4 °F 42.8 °F 33% 29.84 in 10.0 mi NE 9.2 mph - N/A   Clear
8:35 AM 75.2 °F 39.2 °F 27% 29.84 in 10.0 mi NE 9.2 mph - N/A   Clear
8:55 AM 77.0 °F 41.0 °F 28% 29.84 in 10.0 mi ENE 11.5 mph - N/A   Clear
9:15 AM 77.0 °F 37.4 °F 24% 29.85 in 10.0 mi East 9.2 mph - N/A   Clear
9:55 AM 78.8 °F 33.8 °F 20% 29.85 in 10.0 mi NNE 12.7 mph - N/A   Clear
10:15 AM 82.4 °F 33.8 °F 17% 29.84 in 10.0 mi NE 10.4 mph - N/A   Clear
10:35 AM 84.2 °F 33.8 °F 16% 29.83 in 10.0 mi ENE 10.4 mph - N/A   Clear
10:55 AM 84.2 °F 33.8 °F 16% 29.83 in 10.0 mi NNE 8.1 mph - N/A   Clear
11:15 AM 86.0 °F 33.8 °F 15% 29.83 in 10.0 mi Calm Calm - N/A   Clear
11:35 AM 87.8 °F 33.8 °F 15% 29.82 in 10.0 mi SSW 3.5 mph - N/A   Clear
11:55 AM 89.6 °F 32.0 °F 13% 29.82 in 10.0 mi SSE 4.6 mph - N/A   Clear
12:15 PM 91.4 °F 30.2 °F 11% 29.81 in 10.0 mi SSW 17.3 mph 31.1 mph N/A   Clear
12:35 PM 93.2 °F 30.2 °F 11% 29.81 in 10.0 mi SSW 20.7 mph 26.5 mph N/A   Clear
12:55 PM 93.2 °F 28.4 °F 10% 29.81 in 10.0 mi SSW 17.3 mph 28.8 mph N/A   Clear
1:15 PM 91.4 °F 28.4 °F 10% 29.81 in 10.0 mi SSW 15.0 mph 23.0 mph N/A   Clear
1:35 PM 91.4 °F 28.4 °F 10% 29.80 in 10.0 mi SSW 28.8 mph - N/A   Clear
1:55 PM 91.4 °F 28.4 °F 10% 29.80 in 10.0 mi South 24.2 mph 31.1 mph N/A   Clear
2:15 PM 93.2 °F 30.2 °F 11% 29.79 in 10.0 mi South 20.7 mph 26.5 mph N/A   Clear
2:35 PM 95.0 °F 30.2 °F 10% 29.78 in 10.0 mi South 23.0 mph 32.2 mph N/A   Clear
2:55 PM 95.0 °F 30.2 °F 10% 29.77 in 10.0 mi SW 16.1 mph 32.2 mph N/A   Clear
3:15 PM 96.8 °F 30.2 °F 10% 29.76 in 10.0 mi South 17.3 mph 20.7 mph N/A   Clear
3:35 PM 96.8 °F 30.2 °F 10% 29.76 in 10.0 mi SSW 18.4 mph 27.6 mph N/A   Clear
3:55 PM 96.8 °F 30.2 °F 10% 29.75 in 10.0 mi SW 23.0 mph 32.2 mph N/A   Clear
4:15 PM 95.0 °F 30.2 °F 10% 29.74 in 10.0 mi South 19.6 mph 24.2 mph N/A   Clear
4:35 PM 96.8 °F 30.2 °F 10% 29.73 in 10.0 mi South 21.9 mph 27.6 mph N/A   Clear
4:55 PM 96.8 °F 30.2 °F 10% 29.72 in 10.0 mi SSW 17.3 mph 24.2 mph N/A   Clear
5:15 PM 96.8 °F 30.2 °F 10% 29.72 in 10.0 mi SSW 12.7 mph 23.0 mph N/A   Clear
5:35 PM 96.8 °F 30.2 °F 10% 29.72 in 10.0 mi SSW 17.3 mph 32.2 mph N/A   Clear
5:55 PM 95.0 °F 30.2 °F 10% 29.71 in 10.0 mi SSW 15.0 mph 31.1 mph N/A   Clear
6:35 PM 93.2 °F 30.2 °F 11% 29.70 in 10.0 mi SSW 26.5 mph - N/A   Clear
6:55 PM 91.4 °F 28.4 °F 10% 29.69 in 10.0 mi SSW 27.6 mph 31.1 mph N/A   Clear
7:15 PM 91.4 °F 28.4 °F 10% 29.70 in 10.0 mi SSW 24.2 mph 28.8 mph N/A   Clear
7:55 PM 89.6 °F 26.6 °F 10% 29.70 in 10.0 mi SSW 23.0 mph - N/A   Clear
8:15 PM 89.6 °F 26.6 °F 10% 29.70 in 10.0 mi SSW 26.5 mph 31.1 mph N/A   Clear
8:35 PM 87.8 °F 26.6 °F 11% 29.70 in 10.0 mi SSW 21.9 mph - N/A   Clear
8:55 PM 87.8 °F 24.8 °F 10% 29.71 in 10.0 mi SSW 19.6 mph - N/A   Clear
9:15 PM 87.8 °F 24.8 °F 10% 29.71 in 10.0 mi SSW 20.7 mph - N/A   Clear
9:35 PM 86.0 °F 24.8 °F 11% 29.72 in 10.0 mi SSW 20.7 mph - N/A   Clear
9:55 PM 84.2 °F 24.8 °F 11% 29.72 in 10.0 mi SSW 17.3 mph - N/A   Clear
10:15 PM 82.4 °F 23.0 °F 11% 29.73 in 10.0 mi SW 12.7 mph - N/A   Clear
10:35 PM 82.4 °F 24.8 °F 12% 29.73 in 10.0 mi SSW 10.4 mph - N/A   Clear
10:55 PM 82.4 °F 24.8 °F 12% 29.74 in 10.0 mi SW 15.0 mph - N/A   Clear
11:15 PM 82.4 °F 21.2 °F 10% 29.75 in 10.0 mi WSW 18.4 mph 25.3 mph N/A   Clear
11:35 PM 80.6 °F 21.2 °F 11% 29.76 in 10.0 mi West 23.0 mph - N/A   Clear
11:55 PM 78.8 °F 19.4 °F 11% 29.77 in 10.0 mi WSW 16.1 mph - N/A   Clear